Location: Hurecourt
(47.9030°N, 6.0653°E)
Time: 04:40:10
(UTC+00:00)

Gbstr 26 Del rocket - Pass Details

Date: 14 July 2020
Orbit: 492 x 1264 km, 51.8° (Epoch: 06 August)

Event Time Altitude Azimuth Distance (km) Brightness Sun altitude
Rises 01:37:37 0° 293° (WNW) 2,651 6.3 -15.8°
Reaches altitude 10° 01:39:40 10° 293° (WNW) 1,815 5.4 -15.6°
Maximum altitude 01:43:45 88° 21° (NNE) 612 3.0 -15.3°
Drops below altitude 10° 01:48:38 10° 114° (ESE) 2,164 5.9 -14.9°
Sets 01:51:17 0° 114° (ESE) 3,212 6.8 -14.6°
